Orbital Elements at Epoch 2459000.5 (2020-May-31.0) TDB
Reference: JPL 13 (heliocentric ecliptic J2000)
Element | Value | Uncertainty (1-sigma) | Units |
e | .2068986828960199 | 8.1941e-08 | |
a | 2.637028856472234 | 2.535e-08 | au |
q | 2.091431059309331 | 2.1124e-07 | au |
i | 10.00265838973496 | 4.7223e-06 | deg |
node | 282.5569686903177 | 4.2132e-05 | deg |
peri | 95.75911767554108 | 4.4794e-05 | deg |
M | 62.39311892394587 | 1.1569e-05 | deg |
tp | 2458729.415338385528 (2019-Sep-02.91533839) | 5.1545e-05 | TDB |
period | 1564.122452351962 4.28 | 2.2554e-05 6.175e-08 | d yr |
n | .2301610078281724 | 3.3188e-09 | deg/d |
Q | 3.182626653635136 | 3.0595e-08 | au |
|
| | Orbit Determination Parameters
Additional Information
|